Regional Weather Roundup
Issued by NWS Goodland, KS

Home | Current Version | Previous Version | Graphics & Text | Print | Product List | Glossary On
Versions: 1 2 3 4 5 6 7 8 9 10 11 12 13 14 15 16 17 18 19 20 21 22 23 24 25 26 27 28 29 30 31 32 33 34 35 36 37 38 39 40 41 42 43 44 45 46 47 48 49 50
000
ASUS43 KGLD 120408
RWRGLD

GOODLAND FORECAST AREA HOURLY WEATHER ROUNDUP
NATIONAL WEATHER SERVICE GOODLAND KS
1000 PM MDT FRI JUL 11 2014

...OFFICIAL OBSERVATIONS...

CITY           SKY/WX    TMP DP  RH WIND       PRES   REMARKS
GOODLAND KS    MOCLDY    83  51  33 SW14G22   30.09R
HILL CITY KS   CLEAR     83  58  42 S14G23    29.98S
IMPERIAL NEB   CLOUDY    73  68  84 NW13G23   30.07R
MCCOOK NEB     MOCLDY    83  58  42 S12       29.98R
AKRON CO       LGT RAIN  64  62  93 SE21G30   30.17R
BURLINGTON CO  CLOUDY    69  62  78 N12G30    30.14R
LIMON CO       CLOUDY    68  60  75 N21       30.21R THUNDER
$$

...UNOFFICIAL OBSERVATIONS...

CITY           SKY/WX    TMP DP  RH WIND       PRES   REMARKS
COLBY KS       CLEAR     82  57  42 S17G23    30.04R
GOVE KS          N/A     78  32  18 CALM        N/A
LENORA KS        N/A     82  32  16 MISG        N/A
NORTON KS      CLEAR     82  48  30 S12G17    29.98R
OBERLIN KS     FAIR      82  52  34 S16       29.99R
SHARON SPRINGS   N/A     78  53  41 S12         N/A
ST FRANCIS KS  CLOUDY    72  61  68 NW21G31   30.08R
TRIBUNE KS     CLEAR     79  41  25 SE12      30.09R
WAKEENEY KS      N/A     81  52  36 MISG        N/A
WRAY CO        CLOUDY    66  64  94 N21       30.12R THUNDER
YUMA CO          N/A     64  61  90 SE12G18     N/A
$$



USA.gov is the U.S. government's official web portal to all federal, state and local government web resources and services.